WZZ576 EDJA-LFML

Flight info

Callsign WZZ576
Flight time 1h 6m
Altitude 37000
Route UMTEX1A UMTEX Y100 TRA Z669 VADAR/N0419F250 Y58 GEVEA T544 PAS/N0385F190 Q226 BALSI
Aircraft A320/M-SDE3FGHIRWY/LB1

Departure

Time 2026-05-06 18:45
Airport Memmingen Allgau Airport (EDJA)

Arrival

Time 2026-05-06 19:51
Airport Marseille Provence Airport (LFML)
Time Latitude Longitude Altitude Speed Heading
2026-05-06 18:17 47.98889 10.23329 2080 ft 0 kts 49°
2026-05-06 18:34 47.98886 10.23328 2056 ft 2 kts 28°
2026-05-06 18:34 47.98894 10.23321 2052 ft 2 kts 339°
2026-05-06 18:34 47.98876 10.23327 2055 ft 2 kts
2026-05-06 18:34 47.98857 10.23323 2081 ft 3 kts 20°
2026-05-06 18:35 47.98840 10.23310 2081 ft 3 kts 46°
2026-05-06 18:35 47.98829 10.23289 2080 ft 2 kts 70°
2026-05-06 18:35 47.98827 10.23280 2080 ft 0 kts 70°
2026-05-06 18:35 47.98827 10.23279 2080 ft 0 kts 70°
2026-05-06 18:39 47.98829 10.23286 2080 ft 2 kts 70°
2026-05-06 18:39 47.98834 10.23309 2081 ft 3 kts 70°
2026-05-06 18:40 47.98856 10.23402 2081 ft 7 kts 70°
2026-05-06 18:40 47.98860 10.23417 2081 ft 2 kts 70°
2026-05-06 18:40 47.98869 10.23455 2081 ft 6 kts 70°
2026-05-06 18:40 47.98892 10.23550 2075 ft 13 kts 69°
2026-05-06 18:41 47.98912 10.23648 2074 ft 8 kts 82°
2026-05-06 18:41 47.98898 10.23708 2075 ft 5 kts 127°
2026-05-06 18:41 47.98870 10.23742 2078 ft 7 kts 146°
2026-05-06 18:41 47.98835 10.23821 2077 ft 13 kts 82°
2026-05-06 18:42 47.98887 10.23963 2073 ft 19 kts 59°
2026-05-06 18:42 47.98966 10.24165 2070 ft 25 kts 58°
2026-05-06 18:42 47.99067 10.24416 2068 ft 30 kts 59°
2026-05-06 18:42 47.99178 10.24695 2067 ft 32 kts 59°
2026-05-06 18:43 47.99285 10.24970 2064 ft 31 kts 59°
2026-05-06 18:43 47.99335 10.25131 2062 ft 10 kts 79°
2026-05-06 18:43 47.99359 10.25147 2061 ft 1 kts 267°
2026-05-06 18:43 47.99355 10.25143 2061 ft 0 kts 240°
2026-05-06 18:44 47.99330 10.25083 2062 ft 28 kts 238°
2026-05-06 18:44 47.99113 10.24540 2068 ft 91 kts 239°
2026-05-06 18:44 47.98704 10.23510 2083 ft 137 kts 239°
2026-05-06 18:45 47.98217 10.22253 2657 ft 135 kts 240°
2026-05-06 18:45 47.97745 10.21037 3339 ft 139 kts 240°
2026-05-06 18:45 47.97223 10.19779 3897 ft 145 kts 240°
2026-05-06 18:45 47.96870 10.18889 4170 ft 157 kts 241°
2026-05-06 18:46 47.96063 10.16834 4565 ft 186 kts 242°
2026-05-06 18:46 47.95368 10.15073 4883 ft 209 kts 241°
2026-05-06 18:46 47.94583 10.13096 5323 ft 232 kts 240°
2026-05-06 18:46 47.93737 10.10984 6171 ft 240 kts 240°
2026-05-06 18:47 47.92867 10.08818 6693 ft 246 kts 240°
2026-05-06 18:47 47.92223 10.06472 6843 ft 247 kts 257°
2026-05-06 18:47 47.91881 10.03996 6887 ft 247 kts 257°
2026-05-06 18:47 47.91542 10.01492 6893 ft 246 kts 257°
2026-05-06 18:48 47.91204 9.98992 6897 ft 246 kts 257°
2026-05-06 18:48 47.90860 9.96451 7191 ft 251 kts 257°
2026-05-06 18:48 47.90518 9.93940 8124 ft 252 kts 257°
2026-05-06 18:48 47.90162 9.91350 8993 ft 258 kts 256°
2026-05-06 18:49 47.89798 9.88696 9803 ft 264 kts 256°
2026-05-06 18:49 47.89417 9.85936 10263 ft 283 kts 256°
2026-05-06 18:49 47.88900 9.82998 10498 ft 305 kts 249°
2026-05-06 18:49 47.88137 9.79932 10768 ft 324 kts 248°
2026-05-06 18:50 47.87341 9.76740 11357 ft 332 kts 248°
2026-05-06 18:50 47.86528 9.73498 12043 ft 337 kts 248°
2026-05-06 18:50 47.85704 9.70207 12708 ft 341 kts 248°
2026-05-06 18:50 47.84864 9.66869 13407 ft 346 kts 247°
2026-05-06 18:51 47.83749 9.63691 14040 ft 350 kts 236°
2026-05-06 18:51 47.82199 9.60880 14666 ft 353 kts 224°
2026-05-06 18:51 47.80298 9.58567 15285 ft 356 kts 217°
2026-05-06 18:51 47.78296 9.56366 15897 ft 358 kts 216°
2026-05-06 18:52 47.76282 9.54158 16531 ft 361 kts 216°
2026-05-06 18:52 47.74252 9.51933 17163 ft 364 kts 216°
2026-05-06 18:52 47.72236 9.49718 17798 ft 366 kts 216°
2026-05-06 18:52 47.70475 9.47778 18326 ft 369 kts 216°
2026-05-06 18:53 47.67741 9.44765 19079 ft 372 kts 216°
2026-05-06 18:53 47.63619 9.40237 20265 ft 376 kts 216°
2026-05-06 18:53 47.59382 9.35604 21363 ft 381 kts 216°
2026-05-06 18:53 47.55091 9.30912 22412 ft 386 kts 216°
2026-05-06 18:54 47.50742 9.26174 23437 ft 390 kts 215°
2026-05-06 18:54 47.46354 9.21409 24303 ft 393 kts 215°
2026-05-06 18:54 47.41936 9.16612 25112 ft 397 kts 216°
2026-05-06 18:54 47.37473 9.11771 25935 ft 399 kts 215°
2026-05-06 18:55 47.32984 9.06919 26854 ft 399 kts 215°
2026-05-06 18:55 47.28482 9.02068 27700 ft 401 kts 215°
2026-05-06 18:55 47.23962 8.97205 28636 ft 401 kts 215°
2026-05-06 18:55 47.19477 8.92374 29780 ft 396 kts 215°
2026-05-06 18:56 47.15066 8.87647 30881 ft 391 kts 216°
2026-05-06 18:56 47.12195 8.84579 31401 ft 392 kts 216°
2026-05-06 18:56 47.06437 8.78421 32431 ft 394 kts 216°
2026-05-06 18:56 47.02005 8.73704 33365 ft 392 kts 216°
2026-05-06 18:57 46.97590 8.69021 34214 ft 392 kts 216°
2026-05-06 18:57 46.94584 8.65840 34568 ft 395 kts 216°
2026-05-06 18:57 46.90104 8.61100 35165 ft 398 kts 216°
2026-05-06 18:57 46.85653 8.56385 35559 ft 404 kts 216°
2026-05-06 18:58 46.81096 8.51571 36115 ft 406 kts 216°
2026-05-06 18:58 46.76499 8.46730 36643 ft 408 kts 216°
2026-05-06 18:58 46.71862 8.41864 36923 ft 414 kts 216°
2026-05-06 18:59 46.62469 8.32040 36932 ft 415 kts 216°
2026-05-06 18:59 46.53093 8.22269 36929 ft 414 kts 216°
2026-05-06 19:00 46.43707 8.12518 36924 ft 414 kts 216°
2026-05-06 19:00 46.34362 8.02873 36942 ft 414 kts 216°
2026-05-06 19:01 46.24965 7.93201 36934 ft 416 kts 216°
2026-05-06 19:01 46.15506 7.83499 36938 ft 417 kts 216°
2026-05-06 19:02 46.06032 7.73848 36926 ft 415 kts 217°
2026-05-06 19:02 45.96569 7.64244 36922 ft 416 kts 216°
2026-05-06 19:03 45.87106 7.54656 36926 ft 415 kts 216°
2026-05-06 19:03 45.77667 7.45165 36932 ft 414 kts 216°
2026-05-06 19:04 45.68246 7.35722 36910 ft 412 kts 216°
2026-05-06 19:04 45.58841 7.26323 36912 ft 411 kts 217°
2026-05-06 19:05 45.49491 7.17021 36892 ft 409 kts 216°
2026-05-06 19:05 45.40204 7.07819 36919 ft 409 kts 216°
2026-05-06 19:06 45.30849 6.98598 36904 ft 408 kts 216°
2026-05-06 19:06 45.21677 6.89592 36918 ft 410 kts 216°
2026-05-06 19:07 45.16945 6.84911 36851 ft 411 kts 217°
2026-05-06 19:07 45.12212 6.80311 36915 ft 414 kts 216°
2026-05-06 19:08 45.07501 6.75741 36923 ft 413 kts 216°
2026-05-06 19:08 45.02768 6.71135 36944 ft 412 kts 216°
2026-05-06 19:09 44.98047 6.66536 36943 ft 412 kts 216°
2026-05-06 19:09 44.93338 6.61940 36947 ft 410 kts 221°
2026-05-06 19:09 44.91377 6.59068 36788 ft 405 kts 234°
2026-05-06 19:10 44.90083 6.55554 36240 ft 406 kts 250°
2026-05-06 19:10 44.89591 6.51627 35650 ft 410 kts 265°
2026-05-06 19:10 44.89940 6.47604 35068 ft 419 kts 280°
2026-05-06 19:10 44.90777 6.43643 34430 ft 422 kts 281°
2026-05-06 19:11 44.91633 6.39670 33846 ft 422 kts 281°
2026-05-06 19:11 44.92486 6.35714 33138 ft 422 kts 281°
2026-05-06 19:11 44.93338 6.31748 32384 ft 422 kts 281°
2026-05-06 19:11 44.94185 6.27784 31620 ft 422 kts 281°
2026-05-06 19:12 44.95019 6.23865 30952 ft 422 kts 280°
2026-05-06 19:12 44.95862 6.19892 30199 ft 423 kts 281°
2026-05-06 19:12 44.96703 6.15912 29368 ft 424 kts 281°
2026-05-06 19:12 44.97542 6.11924 29016 ft 425 kts 281°
2026-05-06 19:13 44.98382 6.07913 28937 ft 427 kts 282°
2026-05-06 19:13 45.00076 5.99802 28962 ft 431 kts 282°
2026-05-06 19:14 45.01784 5.91684 28962 ft 431 kts 282°
2026-05-06 19:14 45.03485 5.83566 28964 ft 430 kts 282°
2026-05-06 19:15 45.05170 5.75431 28949 ft 431 kts 282°
2026-05-06 19:15 45.06846 5.67300 28956 ft 431 kts 283°
2026-05-06 19:16 45.08520 5.59153 28954 ft 431 kts 283°
2026-05-06 19:16 45.09639 5.50903 28946 ft 425 kts 268°
2026-05-06 19:17 45.08589 5.42824 28401 ft 418 kts 248°
2026-05-06 19:17 45.07271 5.39203 28107 ft 422 kts 237°
2026-05-06 19:17 45.05424 5.35890 27801 ft 425 kts 227°
2026-05-06 19:17 45.03351 5.32958 27499 ft 428 kts 226°
2026-05-06 19:18 45.01235 5.29985 27197 ft 428 kts 226°
2026-05-06 19:18 44.99126 5.27029 26889 ft 427 kts 226°
2026-05-06 19:18 44.96993 5.24044 26603 ft 426 kts 226°
2026-05-06 19:18 44.94889 5.21109 26314 ft 424 kts 226°
2026-05-06 19:19 44.92793 5.18185 26029 ft 423 kts 226°
2026-05-06 19:19 44.90726 5.15299 25751 ft 422 kts 226°
2026-05-06 19:19 44.88639 5.12384 25469 ft 421 kts 226°
2026-05-06 19:19 44.86568 5.09493 25181 ft 417 kts 226°
2026-05-06 19:20 44.84510 5.06625 24907 ft 414 kts 226°
2026-05-06 19:20 44.82465 5.03780 24639 ft 412 kts 226°
2026-05-06 19:20 44.78721 4.98589 24152 ft 410 kts 226°
2026-05-06 19:20 44.74282 4.93579 23632 ft 413 kts 210°
2026-05-06 19:21 44.68722 4.91420 23041 ft 421 kts 186°
2026-05-06 19:21 44.62871 4.92313 22440 ft 424 kts 173°
2026-05-06 19:21 44.57082 4.93676 21843 ft 421 kts 174°
2026-05-06 19:21 44.51321 4.95012 21274 ft 417 kts 174°
2026-05-06 19:22 44.45612 4.96331 20663 ft 413 kts 174°
2026-05-06 19:22 44.40800 4.97448 20193 ft 411 kts 174°
2026-05-06 19:22 44.37982 4.98104 19915 ft 409 kts 174°
2026-05-06 19:22 44.35178 4.98757 19641 ft 408 kts 173°
2026-05-06 19:23 44.32378 4.99410 19355 ft 407 kts 173°
2026-05-06 19:23 44.29592 5.00059 19085 ft 405 kts 174°
2026-05-06 19:23 44.26818 5.00703 18817 ft 404 kts 174°
2026-05-06 19:23 44.24046 5.01342 18555 ft 403 kts 174°
2026-05-06 19:24 44.21282 5.01978 18290 ft 402 kts 173°
2026-05-06 19:24 44.18561 5.02604 18009 ft 400 kts 173°
2026-05-06 19:24 44.15819 5.03234 17713 ft 398 kts 173°
2026-05-06 19:24 44.13088 5.03859 17413 ft 397 kts 173°
2026-05-06 19:25 44.10370 5.04479 17092 ft 395 kts 174°
2026-05-06 19:25 44.07661 5.05104 16798 ft 394 kts 174°
2026-05-06 19:25 44.04962 5.05729 16519 ft 392 kts 174°
2026-05-06 19:25 44.02275 5.06351 16255 ft 391 kts 174°
2026-05-06 19:26 43.99614 5.06965 15976 ft 389 kts 174°
2026-05-06 19:26 43.96948 5.07577 15696 ft 388 kts 174°
2026-05-06 19:26 43.94294 5.08186 15418 ft 386 kts 174°
2026-05-06 19:26 43.91649 5.08792 15111 ft 383 kts 174°
2026-05-06 19:27 43.89022 5.09396 14614 ft 382 kts 174°
2026-05-06 19:27 43.86418 5.09997 14130 ft 377 kts 174°
2026-05-06 19:27 43.83853 5.10589 13637 ft 370 kts 174°
2026-05-06 19:27 43.81450 5.11144 13124 ft 364 kts 174°
2026-05-06 19:28 43.78892 5.11730 12575 ft 359 kts 174°
2026-05-06 19:28 43.76443 5.12284 12056 ft 354 kts 174°
2026-05-06 19:28 43.74029 5.12824 11549 ft 349 kts 174°
2026-05-06 19:28 43.71644 5.13364 11057 ft 345 kts 173°
2026-05-06 19:29 43.69285 5.13678 10562 ft 339 kts 181°
2026-05-06 19:29 43.66938 5.13712 10095 ft 335 kts 182°
2026-05-06 19:29 43.64615 5.13720 9615 ft 333 kts 182°
2026-05-06 19:29 43.62310 5.13720 9122 ft 330 kts 182°
2026-05-06 19:30 43.60016 5.13711 8609 ft 328 kts 182°
2026-05-06 19:30 43.57738 5.13691 8114 ft 326 kts 183°
2026-05-06 19:30 43.55506 5.13667 7931 ft 315 kts 183°
2026-05-06 19:30 43.53393 5.13646 7932 ft 292 kts 183°
2026-05-06 19:31 43.51434 5.13635 7939 ft 272 kts 183°
2026-05-06 19:31 43.49627 5.13635 7944 ft 257 kts 183°
2026-05-06 19:31 43.46074 5.13651 7947 ft 255 kts 182°
2026-05-06 19:32 43.44305 5.13654 7680 ft 255 kts 182°
2026-05-06 19:32 43.42533 5.13649 7251 ft 252 kts 183°
2026-05-06 19:32 43.40799 5.13651 6830 ft 250 kts 182°
2026-05-06 19:32 43.39056 5.13652 6419 ft 251 kts 183°
2026-05-06 19:33 43.37290 5.13645 5983 ft 256 kts 182°
2026-05-06 19:33 43.35487 5.13625 5543 ft 261 kts 182°
2026-05-06 19:33 43.33656 5.13612 5116 ft 264 kts 183°
2026-05-06 19:33 43.31840 5.13597 4996 ft 255 kts 183°
2026-05-06 19:34 43.30110 5.13601 5003 ft 244 kts 182°
2026-05-06 19:34 43.28418 5.13580 5007 ft 243 kts 183°
2026-05-06 19:34 43.26722 5.13587 5008 ft 245 kts 183°
2026-05-06 19:34 43.25028 5.13588 5009 ft 243 kts 182°
2026-05-06 19:35 43.23342 5.13716 5011 ft 243 kts 166°
2026-05-06 19:35 43.21886 5.14786 4884 ft 243 kts 136°
2026-05-06 19:35 43.21004 5.16768 4535 ft 244 kts 103°
2026-05-06 19:35 43.20728 5.19073 4130 ft 247 kts 94°
2026-05-06 19:36 43.20570 5.21393 3913 ft 250 kts 93°
2026-05-06 19:36 43.20429 5.23771 3684 ft 250 kts 92°
2026-05-06 19:36 43.20302 5.26128 3453 ft 246 kts 92°
2026-05-06 19:36 43.20181 5.28483 3226 ft 248 kts 92°
2026-05-06 19:37 43.20052 5.30848 3059 ft 250 kts 93°
2026-05-06 19:37 43.19907 5.33212 3015 ft 246 kts 100°
2026-05-06 19:37 43.19229 5.35325 3017 ft 240 kts 132°
2026-05-06 19:37 43.18413 5.36271 3016 ft 226 kts 156°
2026-05-06 19:38 43.16458 5.36716 3020 ft 210 kts 198°
2026-05-06 19:38 43.15234 5.35761 3026 ft 202 kts 232°
2026-05-06 19:38 43.14585 5.34119 3024 ft 195 kts 261°
2026-05-06 19:38 43.14593 5.32303 3026 ft 190 kts 280°
2026-05-06 19:39 43.14548 5.30504 3027 ft 193 kts 251°
2026-05-06 19:39 43.13695 5.29075 3030 ft 203 kts 216°
2026-05-06 19:39 43.12311 5.28564 3033 ft 211 kts 189°
2026-05-06 19:39 43.10832 5.28564 3026 ft 214 kts 184°
2026-05-06 19:40 43.09845 5.28589 3017 ft 213 kts 191°
2026-05-06 19:40 43.08526 5.27893 3021 ft 200 kts 226°
2026-05-06 19:40 43.07832 5.26330 3024 ft 192 kts 262°
2026-05-06 19:40 43.07727 5.24527 3026 ft 190 kts 271°
2026-05-06 19:41 43.07733 5.22729 3022 ft 188 kts 272°
2026-05-06 19:41 43.07760 5.20927 3025 ft 190 kts 272°
2026-05-06 19:41 43.07792 5.19112 3025 ft 193 kts 272°
2026-05-06 19:41 43.07837 5.17284 3021 ft 192 kts 274°
2026-05-06 19:42 43.08245 5.15571 3017 ft 193 kts 308°
2026-05-06 19:42 43.09362 5.14566 3023 ft 200 kts 343°
2026-05-06 19:42 43.10766 5.14519 3031 ft 205 kts
2026-05-06 19:42 43.12186 5.14754 3030 ft 206 kts
2026-05-06 19:43 43.13594 5.15172 3019 ft 212 kts 21°
2026-05-06 19:43 43.14688 5.16539 3025 ft 221 kts 59°
2026-05-06 19:43 43.15254 5.18524 3028 ft 226 kts 71°
2026-05-06 19:43 43.15676 5.20604 3026 ft 226 kts 72°
2026-05-06 19:44 43.16075 5.22685 3029 ft 226 kts 73°
2026-05-06 19:44 43.16480 5.24764 3021 ft 226 kts 73°
2026-05-06 19:44 43.16875 5.26830 3023 ft 226 kts 73°
2026-05-06 19:44 43.17274 5.28908 3022 ft 224 kts 72°
2026-05-06 19:45 43.17702 5.30938 3022 ft 223 kts 63°
2026-05-06 19:45 43.18588 5.32616 3024 ft 215 kts 34°
2026-05-06 19:45 43.19884 5.33520 3026 ft 207 kts
2026-05-06 19:45 43.21293 5.33588 3041 ft 202 kts 351°
2026-05-06 19:46 43.22686 5.33457 3045 ft 198 kts 352°
2026-05-06 19:46 43.24059 5.33329 3030 ft 197 kts 352°
2026-05-06 19:46 43.25422 5.33203 3026 ft 197 kts 352°
2026-05-06 19:46 43.26790 5.33078 3028 ft 198 kts 351°
2026-05-06 19:47 43.28164 5.32952 3028 ft 198 kts 350°
2026-05-06 19:47 43.29541 5.32828 3028 ft 198 kts 352°
2026-05-06 19:47 43.30903 5.32764 2935 ft 193 kts 355°
2026-05-06 19:47 43.32243 5.32738 2641 ft 188 kts 354°
2026-05-06 19:48 43.33484 5.32726 2520 ft 166 kts 354°
2026-05-06 19:48 43.34598 5.32713 2092 ft 159 kts 352°
2026-05-06 19:48 43.35638 5.32408 2036 ft 152 kts 332°
2026-05-06 19:48 43.36520 5.31650 2038 ft 148 kts 314°
2026-05-06 19:49 43.37238 5.30644 1959 ft 147 kts 310°
2026-05-06 19:49 43.37930 5.29660 1833 ft 137 kts 309°
2026-05-06 19:49 43.38582 5.28735 1731 ft 133 kts 309°
2026-05-06 19:49 43.39227 5.27815 1504 ft 132 kts 308°
2026-05-06 19:50 43.39854 5.26899 1263 ft 132 kts 309°
2026-05-06 19:50 43.40499 5.25998 1008 ft 132 kts 311°
2026-05-06 19:50 43.41147 5.25105 765 ft 132 kts 309°
2026-05-06 19:50 43.41744 5.24239 508 ft 135 kts 310°
2026-05-06 19:51 43.42418 5.23287 303 ft 135 kts 308°
2026-05-06 19:51 43.43044 5.22395 117 ft 127 kts 311°
2026-05-06 19:51 43.43594 5.21600 46 ft 98 kts 315°
2026-05-06 19:51 43.43951 5.21102 37 ft 48 kts 316°
2026-05-06 19:52 43.44071 5.20952 32 ft 1 kts 355°
2026-05-06 19:52 43.44100 5.20964 31 ft 8 kts 25°
2026-05-06 19:52 43.44125 5.20991 31 ft 2 kts 47°
2026-05-06 19:52 43.44137 5.21021 31 ft 0 kts 62°
2026-05-06 19:53 43.44145 5.21040 31 ft 4 kts 61°
2026-05-06 19:53 43.44156 5.21067 31 ft 3 kts 63°
2026-05-06 19:53 43.44163 5.21112 31 ft 6 kts 91°
2026-05-06 19:53 43.44142 5.21172 32 ft 8 kts 129°
2026-05-06 19:54 43.44103 5.21230 33 ft 9 kts 133°
2026-05-06 19:54 43.44069 5.21306 33 ft 10 kts 100°
2026-05-06 19:54 43.44082 5.21353 34 ft 6 kts 54°
2026-05-06 19:54 43.44119 5.21404 34 ft 8 kts 17°
2026-05-06 19:55 43.44165 5.21374 31 ft 0 kts 316°
2026-05-06 19:55 43.44169 5.21369 32 ft 0 kts 315°